Time,TemperatureF,DewpointF,PressureIn,WindDirection,WindDirectionDegrees,WindSpeedMPH,WindSpeedGustMPH,Humidity,HourlyPrecipIn,Conditions,Clouds,dailyrainin,SoftwareType,DateUTC
2013-02-08 00:05:00,11.3,9.0,29.37,NNW,330,0.0,0.0,89,0.00,,,0.00,weatherlink.com 1.10,2013-02-08 09:05:00,
2013-02-08 00:20:00,11.1,9.0,29.37,NNW,330,0.0,0.0,90,0.00,,,0.00,weatherlink.com 1.10,2013-02-08 09:20:00,
2013-02-08 00:35:00,11.4,9.0,29.38,NNW,330,0.0,0.0,90,0.00,,,0.00,weatherlink.com 1.10,2013-02-08 09:35:00,
2013-02-08 00:50:00,11.1,9.0,29.39,NNW,333,0.0,0.0,89,0.00,,,0.00,weatherlink.com 1.10,2013-02-08 09:50:00,
2013-02-08 01:05:00,11.0,9.0,29.39,NNW,333,0.0,0.0,90,0.00,,,0.00,weatherlink.com 1.10,2013-02-08 10:05:00,
2013-02-08 01:20:00,11.3,9.0,29.39,NNW,333,0.0,0.0,90,0.00,,,0.00,weatherlink.com 1.10,2013-02-08 10:20:00,
2013-02-08 01:35:00,10.7,8.0,29.39,NNW,333,0.0,0.0,88,0.00,,,0.00,weatherlink.com 1.10,2013-02-08 10:35:00,
2013-02-08 01:50:00,9.3,6.0,29.40,SE,139,0.0,0.0,86,0.00,,,0.00,weatherlink.com 1.10,2013-02-08 10:50:00,
2013-02-08 02:05:00,8.6,6.0,29.40,SE,139,0.0,0.0,88,0.00,,,0.00,weatherlink.com 1.10,2013-02-08 11:05:00,
2013-02-08 02:20:00,8.8,6.0,29.41,SE,128,0.0,0.0,89,0.00,,,0.00,weatherlink.com 1.10,2013-02-08 11:20:00,
2013-02-08 02:35:00,8.7,6.0,29.41,SE,128,0.0,0.0,89,0.00,,,0.00,weatherlink.com 1.10,2013-02-08 11:35:00,
2013-02-08 02:50:00,8.3,6.0,29.41,SE,128,0.0,0.0,89,0.00,,,0.00,weatherlink.com 1.10,2013-02-08 11:50:00,
2013-02-08 03:05:00,7.3,4.0,29.41,SE,128,0.0,0.0,87,0.00,,,0.00,weatherlink.com 1.10,2013-02-08 12:05:00,
2013-02-08 03:20:00,7.0,5.0,29.41,SE,129,0.0,0.0,89,0.00,,,0.00,weatherlink.com 1.10,2013-02-08 12:20:00,
2013-02-08 03:35:00,7.3,5.0,29.42,SE,128,0.0,0.0,90,0.00,,,0.00,weatherlink.com 1.10,2013-02-08 12:35:00,
2013-02-08 03:50:00,7.0,4.0,29.42,SE,128,0.0,0.0,88,0.00,,,0.00,weatherlink.com 1.10,2013-02-08 12:50:00,
2013-02-08 04:05:00,7.0,5.0,29.42,SE,129,0.0,0.0,89,0.00,,,0.00,weatherlink.com 1.10,2013-02-08 13:05:00,
2013-02-08 04:20:00,6.7,4.0,29.43,SE,129,0.0,0.0,89,0.00,,,0.00,weatherlink.com 1.10,2013-02-08 13:20:00,
2013-02-08 04:36:00,6.7,4.0,29.43,SE,128,0.0,0.0,90,0.00,,,0.00,weatherlink.com 1.10,2013-02-08 13:36:00,
2013-02-08 04:51:00,7.1,5.0,29.44,SE,128,0.0,0.0,90,0.00,,,0.00,weatherlink.com 1.10,2013-02-08 13:51:00,
2013-02-08 05:05:00,7.4,5.0,29.45,ESE,104,0.0,0.0,89,0.00,,,0.00,weatherlink.com 1.10,2013-02-08 14:05:00,
2013-02-08 05:20:00,7.3,5.0,29.45,ESE,105,0.0,0.0,89,0.00,,,0.00,weatherlink.com 1.10,2013-02-08 14:20:00,
2013-02-08 05:35:00,7.3,5.0,29.46,East,83,0.0,1.0,89,0.00,,,0.00,weatherlink.com 1.10,2013-02-08 14:35:00,
2013-02-08 05:50:00,7.5,5.0,29.46,East,84,0.0,0.0,89,0.00,,,0.00,weatherlink.com 1.10,2013-02-08 14:50:00,
2013-02-08 06:05:00,6.9,4.0,29.47,East,83,0.0,0.0,87,0.00,,,0.00,weatherlink.com 1.10,2013-02-08 15:05:00,
2013-02-08 06:20:00,6.6,4.0,29.48,East,83,0.0,0.0,88,0.00,,,0.00,weatherlink.com 1.10,2013-02-08 15:20:00,
2013-02-08 06:35:00,6.1,3.0,29.48,East,83,0.0,0.0,88,0.00,,,0.00,weatherlink.com 1.10,2013-02-08 15:35:00,
2013-02-08 06:51:00,6.7,4.0,29.49,East,83,0.0,0.0,89,0.00,,,0.00,weatherlink.com 1.10,2013-02-08 15:51:00,
2013-02-08 07:06:00,6.3,4.0,29.50,East,83,0.0,0.0,88,0.00,,,0.00,weatherlink.com 1.10,2013-02-08 16:06:00,
2013-02-08 07:21:00,5.1,2.0,29.50,East,83,0.0,0.0,88,0.00,,,0.00,weatherlink.com 1.10,2013-02-08 16:21:00,
2013-02-08 07:36:00,5.3,3.0,29.51,East,84,0.0,0.0,88,0.00,,,0.00,weatherlink.com 1.10,2013-02-08 16:36:00,
2013-02-08 07:51:00,6.1,4.0,29.52,East,84,0.0,0.0,89,0.00,,,0.00,weatherlink.com 1.10,2013-02-08 16:51:00,
2013-02-08 08:06:00,6.1,3.0,29.53,East,84,0.0,0.0,88,0.00,,,0.00,weatherlink.com 1.10,2013-02-08 17:06:00,
2013-02-08 08:21:00,4.9,2.0,29.54,East,84,0.0,0.0,86,0.00,,,0.00,weatherlink.com 1.10,2013-02-08 17:21:00,
2013-02-08 08:39:00,4.8,2.0,29.54,East,83,0.0,0.0,86,0.00,,,0.00,weatherlink.com 1.10,2013-02-08 17:39:00,
2013-02-08 08:51:00,4.3,1.0,29.55,East,83,0.0,0.0,87,0.00,,,0.00,weatherlink.com 1.10,2013-02-08 17:51:00,
2013-02-08 09:06:00,4.5,2.0,29.56,East,85,0.0,0.0,87,0.00,,,0.00,weatherlink.com 1.10,2013-02-08 18:06:00,
2013-02-08 09:21:00,4.3,1.0,29.56,ESE,113,0.0,0.0,87,0.00,,,0.00,weatherlink.com 1.10,2013-02-08 18:21:00,
2013-02-08 09:36:00,4.2,1.0,29.57,SW,222,0.0,1.0,87,0.00,,,0.00,weatherlink.com 1.10,2013-02-08 18:36:00,
2013-02-08 09:51:00,3.9,1.0,29.58,SE,128,0.0,0.0,86,0.00,,,0.00,weatherlink.com 1.10,2013-02-08 18:51:00,
2013-02-08 10:06:00,3.6,0.0,29.59,SSE,153,0.0,1.0,86,0.00,,,0.00,weatherlink.com 1.10,2013-02-08 19:06:00,
2013-02-08 10:21:00,2.8,0.0,29.60,SE,128,0.0,0.0,86,0.00,,,0.00,weatherlink.com 1.10,2013-02-08 19:21:00,
2013-02-08 10:37:00,2.8,0.0,29.61,ESE,116,0.0,0.0,87,0.00,,,0.00,weatherlink.com 1.10,2013-02-08 19:37:00,
2013-02-08 10:52:00,2.9,0.0,29.62,ESE,108,0.0,0.0,86,0.00,,,0.00,weatherlink.com 1.10,2013-02-08 19:52:00,
2013-02-08 11:07:00,2.9,0.0,29.63,ESE,120,0.0,0.0,86,0.00,,,0.00,weatherlink.com 1.10,2013-02-08 20:07:00,
2013-02-08 11:21:00,3.1,0.0,29.64,ESE,112,0.0,0.0,86,0.00,,,0.00,weatherlink.com 1.10,2013-02-08 20:21:00,
2013-02-08 11:37:00,3.4,0.0,29.64,ESE,105,0.0,0.0,86,0.00,,,0.00,weatherlink.com 1.10,2013-02-08 20:37:00,
2013-02-08 11:52:00,3.6,0.0,29.66,SE,135,0.0,0.0,85,0.00,,,0.00,weatherlink.com 1.10,2013-02-08 20:52:00,
2013-02-08 12:07:00,3.9,0.0,29.66,ESE,113,0.0,0.0,85,0.00,,,0.00,weatherlink.com 1.10,2013-02-08 21:07:00,
2013-02-08 12:22:00,4.3,1.0,29.68,SE,126,0.0,0.0,85,0.00,,,0.00,weatherlink.com 1.10,2013-02-08 21:22:00,
2013-02-08 12:37:00,4.0,0.0,29.68,ESE,103,0.0,0.0,84,0.00,,,0.00,weatherlink.com 1.10,2013-02-08 21:37:00,
2013-02-08 12:52:00,4.3,1.0,29.69,SE,129,0.0,0.0,84,0.00,,,0.00,weatherlink.com 1.10,2013-02-08 21:52:00,
2013-02-08 13:07:00,3.9,0.0,29.70,East,94,0.0,0.0,84,0.00,,,0.00,weatherlink.com 1.10,2013-02-08 22:07:00,
2013-02-08 13:22:00,4.3,1.0,29.71,ESE,113,0.0,0.0,84,0.00,,,0.00,weatherlink.com 1.10,2013-02-08 22:22:00,
2013-02-08 13:37:00,4.7,1.0,29.72,ESE,114,0.0,0.0,84,0.00,,,0.00,weatherlink.com 1.10,2013-02-08 22:37:00,
2013-02-08 13:53:00,3.9,0.0,29.73,ESE,110,0.0,0.0,84,0.00,,,0.00,weatherlink.com 1.10,2013-02-08 22:53:00,
2013-02-08 14:07:00,3.8,0.0,29.74,SE,136,0.0,0.0,85,0.00,,,0.00,weatherlink.com 1.10,2013-02-08 23:07:00,
2013-02-08 14:23:00,4.1,1.0,29.75,ESE,113,0.0,0.0,85,0.00,,,0.00,weatherlink.com 1.10,2013-02-08 23:23:00,
2013-02-08 14:37:00,3.4,0.0,29.76,SE,145,0.0,0.0,85,0.00,,,0.00,weatherlink.com 1.10,2013-02-08 23:37:00,
2013-02-08 14:52:00,3.0,-1.0,29.76,SSW,198,0.0,0.0,85,0.00,,,0.00,weatherlink.com 1.10,2013-02-08 23:52:00,
2013-02-08 15:08:00,2.5,-1.0,29.77,SE,136,0.0,0.0,85,0.00,,,0.00,weatherlink.com 1.10,2013-02-09 00:08:00,
2013-02-08 15:23:00,2.4,-1.0,29.77,SSW,202,0.0,0.0,85,0.00,,,0.00,weatherlink.com 1.10,2013-02-09 00:23:00,
2013-02-08 15:38:00,2.1,-1.0,29.78,SE,126,0.0,0.0,86,0.00,,,0.00,weatherlink.com 1.10,2013-02-09 00:38:00,
2013-02-08 15:53:00,2.2,-1.0,29.78,SE,125,0.0,0.0,86,0.00,,,0.00,weatherlink.com 1.10,2013-02-09 00:53:00,
2013-02-08 16:08:00,2.9,0.0,29.78,West,266,0.0,0.0,86,0.00,,,0.00,weatherlink.com 1.10,2013-02-09 01:08:00,
2013-02-08 16:23:00,2.9,-1.0,29.79,SE,139,0.0,0.0,85,0.00,,,0.00,weatherlink.com 1.10,2013-02-09 01:23:00,
2013-02-08 16:38:00,1.7,-2.0,29.80,ESE,122,0.0,0.0,86,0.00,,,0.00,weatherlink.com 1.10,2013-02-09 01:38:00,
2013-02-08 16:53:00,1.1,-2.0,29.80,ESE,122,0.0,0.0,86,0.00,,,0.00,weatherlink.com 1.10,2013-02-09 01:53:00,
2013-02-08 17:08:00,1.9,-1.0,29.81,WNW,293,0.0,0.0,87,0.00,,,0.00,weatherlink.com 1.10,2013-02-09 02:08:00,
2013-02-08 17:23:00,1.8,-1.0,29.81,NE,55,0.0,0.0,86,0.00,,,0.00,weatherlink.com 1.10,2013-02-09 02:23:00,
2013-02-08 17:38:00,2.2,-1.0,29.82,NE,56,0.0,0.0,87,0.00,,,0.00,weatherlink.com 1.10,2013-02-09 02:38:00,
2013-02-08 17:53:00,2.3,-1.0,29.82,NNW,345,0.0,0.0,86,0.00,,,0.00,weatherlink.com 1.10,2013-02-09 02:53:00,
2013-02-08 18:08:00,2.5,-1.0,29.83,ESE,104,0.0,0.0,87,0.00,,,0.00,weatherlink.com 1.10,2013-02-09 03:08:00,
2013-02-08 18:25:00,2.9,0.0,29.84,ESE,104,0.0,0.0,87,0.00,,,0.00,weatherlink.com 1.10,2013-02-09 03:25:00,
2013-02-08 18:39:00,4.3,2.0,29.84,ENE,70,0.0,0.0,89,0.00,,,0.00,weatherlink.com 1.10,2013-02-09 03:39:00,
2013-02-08 18:54:00,5.6,3.0,29.84,ENE,60,0.0,0.0,87,0.00,,,0.00,weatherlink.com 1.10,2013-02-09 03:54:00,
2013-02-08 19:09:00,5.8,3.0,29.85,ESE,123,0.0,0.0,87,0.00,,,0.00,weatherlink.com 1.10,2013-02-09 04:09:00,
2013-02-08 19:24:00,6.1,3.0,29.85,North,354,0.0,0.0,87,0.00,,,0.00,weatherlink.com 1.10,2013-02-09 04:24:00,
2013-02-08 19:39:00,6.5,4.0,29.86,NE,51,0.0,0.0,88,0.00,,,0.00,weatherlink.com 1.10,2013-02-09 04:39:00,
2013-02-08 19:54:00,6.8,4.0,29.86,NE,51,0.0,0.0,88,0.00,,,0.00,weatherlink.com 1.10,2013-02-09 04:54:00,
2013-02-08 20:09:00,6.9,4.0,29.86,NNW,344,0.0,0.0,88,0.00,,,0.00,weatherlink.com 1.10,2013-02-09 05:09:00,
2013-02-08 20:24:00,7.3,5.0,29.86,ENE,63,0.0,0.0,88,0.00,,,0.00,weatherlink.com 1.10,2013-02-09 05:24:00,
2013-02-08 20:39:00,7.6,5.0,29.86,ENE,65,0.0,0.0,87,0.00,,,0.00,weatherlink.com 1.10,2013-02-09 05:39:00,
2013-02-08 20:54:00,7.6,5.0,29.86,ENE,65,0.0,0.0,87,0.00,,,0.00,weatherlink.com 1.10,2013-02-09 05:54:00,
2013-02-08 21:09:00,7.4,5.0,29.86,ENE,65,0.0,0.0,88,0.00,,,0.00,weatherlink.com 1.10,2013-02-09 06:09:00,
2013-02-08 21:24:00,7.2,4.0,29.87,ENE,65,0.0,0.0,87,0.00,,,0.00,weatherlink.com 1.10,2013-02-09 06:24:00,
2013-02-08 21:39:00,8.7,6.0,29.86,ENE,78,0.0,0.0,88,0.00,,,0.00,weatherlink.com 1.10,2013-02-09 06:39:00,
2013-02-08 21:54:00,9.2,6.0,29.86,NNE,32,0.0,0.0,86,0.00,,,0.00,weatherlink.com 1.10,2013-02-09 06:54:00,
2013-02-08 22:10:00,8.9,6.0,29.86,NE,56,0.0,0.0,88,0.00,,,0.00,weatherlink.com 1.10,2013-02-09 07:10:00,
2013-02-08 22:25:00,9.5,7.0,29.87,East,80,0.0,0.0,88,0.00,,,0.00,weatherlink.com 1.10,2013-02-09 07:25:00,
2013-02-08 22:40:00,8.9,6.0,29.87,NW,305,0.0,0.0,87,0.00,,,0.00,weatherlink.com 1.10,2013-02-09 07:40:00,
2013-02-08 22:55:00,8.8,6.0,29.87,NW,305,0.0,0.0,87,0.00,,,0.00,weatherlink.com 1.10,2013-02-09 07:55:00,
2013-02-08 23:10:00,9.3,7.0,29.86,North,6,0.0,0.0,89,0.00,,,0.00,weatherlink.com 1.10,2013-02-09 08:10:00,
2013-02-08 23:25:00,10.9,9.0,29.86,North,6,0.0,0.0,90,0.00,,,0.00,weatherlink.com 1.10,2013-02-09 08:25:00,
2013-02-08 23:40:00,10.6,8.0,29.87,NNE,15,0.0,0.0,89,0.00,,,0.00,weatherlink.com 1.10,2013-02-09 08:40:00,
2013-02-08 23:55:00,10.6,8.0,29.87,NNW,333,0.0,0.0,88,0.00,,,0.00,weatherlink.com 1.10,2013-02-09 08:55:00,